Погода в Сан-Хуан-дель-Рио

Мексика     20°23′17″N   99°59′45″W
В апреле 2022 года жителям России запретили посещать сайт meteo.paraplan.net по решению Генеральной прокуратуры. Аудитория сайта уменьшилась в 10 раз. Владельцы сайта не видят смысла в поддержке погодного сервера в таких условиях. Сайт будет закрыт в октябре.
темп.,
°C
ветер,
м/с
пор.,
м/с
влажн.,
%
обл.,
%
осадки,
мм/ч
давл.,
гПа
погр.,
м
25 сентября, вс
вс2501:00+14в22875 0.0 101720
04:00+13в22955 0.0 101612
07:00+12в11969 0.0 101711
10:00+17всв23692 0.0 1017616
13:00+24св33384 0.0 10131717
16:00+26ссв433197 0.0 10092795
19:00+21всв474545 0.0 1010405
22:00+16в23749 0.0 101431
26 сентября, пн
пн2601:00+14всв22925 0.1 101626
04:00+13всв229761 0.0 101560
07:00+14всв3478100 0.0 1016687
10:00+17всв346352 0.0 1017930
13:00+21всв555281 0.1 10141518
16:00+22всв565111 0.1 10111311
19:00+19в676254 0.5 1012737
22:00+14в378725 0.3 1017219
27 сентября, вт
вт2701:00+12в239418 0.3 101859
04:00+14в248364 0.0 1017444
07:00+13всв238774 0.0 1018106
10:00+16в457187 0.1 1019895
13:00+21всв574181 0.1 10151712
16:00+23всв773246 0.0 10112191
19:00+20всв79475 0.0 1013620
22:00+14в348212 0.0 101882
28 сентября, ср
ср2801:00+14св228965 0.1 101994
04:00+12всв239315 0.1 1019117
07:00+10в22966 0.1 102115
10:00+16всв356945 0.0 1021802
13:00+21всв564875 0.0 10171648
16:00+20всв565096 0.0 10151511
19:00+19всв575688 0.1 1016592
22:00+15всв477799 0.2 1020512
29 сентября, чт
чт2901:00+14св358087 0.2 1021445
04:00+10св229412 0.0 102132
07:00+10всв229077 0.0 1022204
10:00+14в346377 0.0 1022680
13:00+21всв54275 0.0 10181427
16:00+23св44225 0.0 10132057
19:00+19всв583634 0.0 1014325
22:00+12в22665 0.0 101923